Simultaneous Nadir Overpasses (SNOs) Predictions

Prediction of SNOs between GOES-15 and TERRA Satellite Orbit:

Table of predicted SNOs for the next 14.0 days since TLE Epoch: 7/21/2013
Index Date Time (GOES-15) GOES-15 Lat,Lon TERRA Lat,Lon Distance(km) Time Diff (sec)
1 07/21/2013 07:42:54 -0.08,-135.36 -0.62,-137.77 275.64 80
2 07/23/2013 07:28:09 -0.07,-135.36 0.05,-134.85 57.65 80
3 07/25/2013 07:16:06 -0.06,-135.35 0.66,-131.93 389.35 80
4 07/25/2013 19:40:04 0.09,-135.35 0.46,-137.09 198.00 80
5 07/27/2013 19:25:25 0.08,-135.34 -0.16,-134.19 131.62 80
6 07/28/2013 07:49:32 -0.11,-135.35 -1.00,-139.38 459.42 80
7 07/29/2013 19:13:29 0.08,-135.33 -0.77,-131.29 459.44 80
8 07/30/2013 07:37:37 -0.11,-135.34 -0.37,-136.49 132.14 80
9 08/01/2013 07:23:05
